#timestamp,LO_Frequency,Hit,Temp,Hum 
1478390415.5,286046970.5,N,0.0,0.0
1478390435.3,286046972.3,N,0.0,0.0
1478390455.2,286046973.6,N,0.0,0.0
1478390475.9,286046969.5,N,0.0,0.0
1478390495.7,286046971.1,N,0.0,0.0
1478390515.6,286046973.5,N,0.0,0.0
1478390535.4,286046975.4,N,0.0,0.0
1478390555.2,286046972.9,N,0.0,0.0
1478390575.1,286046974.4,N,0.0,0.0
1478390576.0,286046974.4,N,0.0,0.0
1478390595.8,286046976.3,N,0.0,0.0
1478390615.6,286046975.9,N,0.0,0.0
1478390635.5,286046978.3,N,0.0,0.0
1478390655.3,286046976.1,N,0.0,0.0
1478390675.1,286046977.1,N,0.0,0.0
1478390695.8,286046976.4,N,0.0,0.0
1478390715.7,286046976.7,N,0.0,0.0
1478390735.5,286046977.1,N,0.0,0.0
1478390755.3,286046972.9,N,0.0,0.0
1478390775.2,286046976.3,N,0.0,0.0
1478390795.0,286046975.7,N,0.0,0.0
1478390795.9,286046975.7,N,0.0,0.0
1478390815.7,286046978.0,N,0.0,0.0
1478390835.6,286046978.1,N,0.0,0.0
1478390855.4,286046977.5,N,0.0,0.0
1478390875.2,286046980.3,N,0.0,0.0
1478390895.1,286046979.8,N,0.0,0.0
1478390896.0,286046979.8,N,0.0,0.0
1478390915.8,286046978.7,N,0.0,0.0
1478390935.6,286046976.1,N,0.0,0.0
1478390955.5,286046976.3,N,0.0,0.0
1478390975.3,286046978.1,N,0.0,0.0
1478390995.1,286046974.6,N,0.0,0.0
1478391015.9,286046975.4,N,0.0,0.0
1478391035.7,286046976.4,N,0.0,0.0
1478391055.5,286046978.6,N,0.0,0.0
1478391075.4,286046975.0,N,0.0,0.0
1478391095.2,286046972.9,N,0.0,0.0
1478391115.0,286046974.2,N,0.0,0.0
1478391115.9,286046974.2,N,0.0,0.0
1478391135.8,286046978.3,N,0.0,0.0
1478391155.6,286046977.3,N,0.0,0.0
1478391175.4,286046980.3,N,0.0,0.0
1478391195.2,286046979.3,N,0.0,0.0
1478391215.1,286046979.7,N,0.0,0.0
1478391216.0,286046979.7,N,0.0,0.0
1478391235.8,286046979.3,N,0.0,0.0
1478391255.6,286046977.8,N,0.0,0.0
1478391275.5,286046977.6,N,0.0,0.0
1478391295.3,286046977.4,N,0.0,0.0
1478391315.1,286046977.3,N,0.0,0.0
1478391335.9,286046979.8,N,0.0,0.0
1478391355.7,286046977.3,N,0.0,0.0
1478391375.5,286046979.0,N,0.0,0.0
1478391395.4,286046978.6,N,0.0,0.0
1478391415.2,286046977.8,N,0.0,0.0
1478391435.0,286046978.9,N,0.0,0.0
1478391435.9,286046978.9,N,0.0,0.0
1478391455.8,286046981.3,N,0.0,0.0
1478391475.6,286046981.5,N,0.0,0.0
1478391495.4,286046981.6,N,0.0,0.0
1478391515.3,286046980.7,N,0.0,0.0
1478391535.1,286046983.6,N,0.0,0.0
1478391536.0,286046983.6,N,0.0,0.0
1478391555.8,286046983.4,N,0.0,0.0
1478391575.7,286046980.6,N,0.0,0.0
1478391595.5,286046981.7,N,0.0,0.0
1478391615.3,286046979.4,N,0.0,0.0
1478391635.1,286046981.4,N,0.0,0.0
1478391655.9,286046978.9,N,0.0,0.0
1478391675.7,286046983.5,N,0.0,0.0
1478391695.5,286046980.8,N,0.0,0.0
1478391715.4,286046983.4,N,0.0,0.0
1478391735.2,286046983.2,N,0.0,0.0
1478391755.0,286046983.5,N,0.0,0.0
1478391755.9,286046983.5,N,0.0,0.0
1478391775.8,286046979.3,N,0.0,0.0
1478391795.6,286046981.5,N,0.0,0.0
1478391815.4,286046982.4,N,0.0,0.0
1478391835.3,286046982.6,N,0.0,0.0
1478391855.1,286046984.8,N,0.0,0.0
1478391875.8,286046984.4,N,0.0,0.0
1478391895.7,286046986.3,N,0.0,0.0
1478391915.5,286046985.9,N,0.0,0.0
1478391935.3,286046986.0,N,0.0,0.0
1478391955.2,286046986.5,N,0.0,0.0
1478391975.9,286046985.4,N,0.0,0.0
1478391995.7,286046982.3,N,0.0,0.0
1478392015.6,286046982.7,N,0.0,0.0
1478392035.4,286046981.9,N,0.0,0.0
1478392055.2,286046979.4,N,0.0,0.0
1478392075.0,286046983.1,N,0.0,0.0
1478392076.0,286046983.1,N,0.0,0.0
1478392095.8,286046986.8,N,0.0,0.0
1478392115.6,286046985.7,N,0.0,0.0
1478392135.4,286046983.8,N,0.0,0.0
1478392155.3,286046985.1,N,0.0,0.0
1478392175.1,286046986.7,N,0.0,0.0
1478392195.8,286046985.5,N,0.0,0.0
1478392215.7,286046988.4,N,0.0,0.0
1478392235.5,286046986.0,N,0.0,0.0
1478392255.3,286046986.4,N,0.0,0.0
1478392275.2,286046987.6,N,0.0,0.0
1478392295.9,286046987.8,N,0.0,0.0
1478392315.7,286046987.0,N,0.0,0.0
1478392335.6,286046986.3,N,0.0,0.0
1478392355.4,286046986.1,N,0.0,0.0
1478392375.2,286046985.5,N,0.0,0.0
1478392395.1,286046988.0,N,0.0,0.0
1478392396.0,286046988.0,N,0.0,0.0
1478392415.8,286046982.1,N,0.0,0.0
1478392435.6,286046986.6,N,0.0,0.0
1478392455.5,286046987.0,N,0.0,0.0
1478392475.3,286046988.4,N,0.0,0.0
1478392495.1,286046988.4,N,0.0,0.0
1478392515.8,286046988.3,N,0.0,0.0
1478392535.7,286046986.5,N,0.0,0.0
1478392555.5,286046985.6,N,0.0,0.0
1478392575.3,286046985.7,N,0.0,0.0
1478392595.2,286046987.5,N,0.0,0.0
1478392615.0,286046987.7,N,0.0,0.0
1478392615.9,286046987.7,N,0.0,0.0
1478392635.7,286046987.9,N,0.0,0.0
1478392655.6,286046987.5,N,0.0,0.0
1478392675.4,286046989.5,N,0.0,0.0
1478392695.2,286046991.6,N,0.0,0.0
1478392715.1,286046990.9,N,0.0,0.0
1478392716.0,286046990.9,N,0.0,0.0
1478392735.8,286046988.6,N,0.0,0.0
1478392755.6,286046988.2,N,0.0,0.0
1478392775.5,286046984.3,N,0.0,0.0
1478392795.3,286046988.1,N,0.0,0.0
1478392815.1,286046987.5,N,0.0,0.0
1478392835.9,286046989.9,N,0.0,0.0
1478392855.7,286046991.4,N,0.0,0.0
1478392875.5,286046988.5,N,0.0,0.0
1478392895.4,286046989.2,N,0.0,0.0
1478392915.2,286046996.3,N,0.0,0.0
1478392935.0,286046994.3,N,0.0,0.0
1478392935.9,286046994.3,N,0.0,0.0
1478392955.8,286046992.4,N,0.0,0.0
1478392975.6,286046993.0,N,0.0,0.0
1478392995.4,286046990.2,N,0.0,0.0
1478393015.2,286046991.2,N,0.0,0.0
1478393035.1,286046993.2,N,0.0,0.0
1478393036.0,286046993.2,N,0.0,0.0
1478393055.8,286046992.8,N,0.0,0.0
1478393075.6,286046990.4,N,0.0,0.0
1478393095.5,286046992.4,N,0.0,0.0
1478393115.3,286046991.9,N,0.0,0.0
1478393135.1,286046992.6,N,0.0,0.0
1478393155.9,286046990.8,N,0.0,0.0
1478393175.7,286046993.1,N,0.0,0.0
1478393195.5,286046991.8,N,0.0,0.0
1478393215.4,286046991.8,N,0.0,0.0
1478393235.2,286046994.5,N,0.0,0.0
1478393255.0,286046991.7,N,0.0,0.0
1478393255.9,286046991.7,N,0.0,0.0
1478393275.8,286046994.7,N,0.0,0.0
1478393295.6,286046994.3,N,0.0,0.0
1478393315.4,286046994.0,N,0.0,0.0
1478393335.3,286046995.9,N,0.0,0.0
1478393355.1,286046995.4,N,0.0,0.0
1478393356.0,286046995.4,N,0.0,0.0
1478393375.8,286046995.3,N,0.0,0.0
1478393395.7,286046995.0,N,0.0,0.0
1478393415.5,286046996.8,N,0.0,0.0
1478393435.3,286046997.8,N,0.0,0.0
1478393455.1,286046995.4,N,0.0,0.0
1478393475.9,286046995.4,N,0.0,0.0
1478393495.7,286046997.9,N,0.0,0.0
1478393515.5,286046995.8,N,0.0,0.0
1478393535.4,286046997.7,N,0.0,0.0
1478393555.2,286046995.3,N,0.0,0.0
1478393575.0,286046993.5,N,0.0,0.0
1478393575.9,286046993.5,N,0.0,0.0
1478393595.8,286046995.8,N,0.0,0.0
1478393615.6,286046995.1,N,0.0,0.0
1478393635.4,286046997.0,N,0.0,0.0
1478393655.3,286046997.4,N,0.0,0.0
1478393675.1,286046997.1,N,0.0,0.0
1478393695.8,286046999.2,N,0.0,0.0
1478393715.7,286046998.7,N,0.0,0.0
1478393735.5,286046998.1,N,0.0,0.0
1478393755.3,286046999.4,N,0.0,0.0
1478393775.2,286046999.3,N,0.0,0.0
1478393795.9,286046997.0,N,0.0,0.0
1478393815.7,286046997.3,N,0.0,0.0
1478393835.6,286046997.4,N,0.0,0.0
1478393855.4,286046996.7,N,0.0,0.0
1478393875.2,286046996.9,N,0.0,0.0
1478393895.0,286046997.8,N,0.0,0.0
1478393896.0,286046997.8,N,0.0,0.0
1478393915.8,286046997.5,N,0.0,0.0
1478393935.6,286046997.2,N,0.0,0.0
1478393955.4,286046996.6,N,0.0,0.0
1478393975.3,286046999.0,N,0.0,0.0
1478393995.1,286046998.4,N,0.0,0.0
